Location: Unspecified
(43.4354°N, 0.0000°E)
Time: 15:05:08
(UTC+00:00)

SO-50 - Visible Passes

Search period start: 20 August 2019 00:00
Search period end: 30 August 2019 00:00
Orbit: 588 x 698 km, 64.6° (Epoch: 20 August)

Date Brightness Start Highest point End Pass type
(mag) Time Alt. Az. Time Alt. Az. Time Alt. Az.
20 Aug ? 01:19:07 10° N 01:22:39 20° NE 01:26:06 10° E visible
20 Aug ? 02:58:51 10° NW 03:03:42 78° WSW 03:08:21 10° SSE visible
20 Aug ? 20:38:36 10° NW 20:40:10 11° NNW 20:41:42 10° N visible
21 Aug ? 01:43:42 10° NNW 01:48:11 35° NE 01:51:24 16° ESE visible
21 Aug ? 03:24:18 10° NW 03:28:35 33° WSW 03:28:43 33° WSW visible
21 Aug ? 19:19:53 10° W 19:23:51 24° NW 19:27:50 10° NNE visible
22 Aug ? 00:29:12 10° N 00:32:06 15° NNE 00:34:58 10° ENE visible
22 Aug ? 02:08:35 10° NNW 02:12:39 59° N 02:12:39 59° N visible
22 Aug ? 19:46:57 10° WNW 19:49:32 14° NNW 19:52:08 10° N visible
23 Aug ? 00:53:37 10° NNW 00:57:44 27° NE 00:57:45 27° NE visible
23 Aug ? 02:33:49 10° NW 02:35:16 19° NW 02:35:16 19° NW visible
23 Aug ? 23:39:28 10° N 23:41:31 12° NNE 23:43:19 10° NE visible
24 Aug ? 01:18:22 10° NNW 01:20:52 28° NNW 01:20:52 28° NNW visible
25 Aug ? 00:03:36 10° N 00:06:42 20° NNE 00:06:42 20° NNE visible
25 Aug ? 01:43:25 10° NW 01:44:17 15° NW 01:44:17 15° NW visible
25 Aug ? 19:23:38 10° NW 19:24:48 11° NNW 19:25:58 10° NNW visible
25 Aug ? 22:50:46 10° NNE 22:50:52 10° NNE 22:50:58 10° NNE visible
26 Aug ? 00:28:13 10° NNW 00:30:19 23° N 00:30:19 23° N visible
26 Aug ? 23:13:39 10° N 23:16:27 16° NNE 23:16:27 16° NNE visible
27 Aug ? 00:53:08 10° NNW 00:54:01 15° NNW 00:54:01 15° NNW visible
27 Aug ? 23:38:07 10° NNW 23:40:16 21° N 23:40:16 21° N visible
28 Aug ? 22:23:52 10° N 22:26:08 13° NNE 22:26:34 13° NE visible
29 Aug ? 00:02:55 10° NNW 00:04:09 18° NNW 00:04:09 18° NNW visible
29 Aug ? 22:48:05 10° NNW 22:50:30 20° NNE 22:50:30 20° NNE visible
